When you browse on this site, cookies collect data to enhance your experience and personalize the content and advertising you see.
Visit our Privacy Policy to learn more. By continuing to use the site, you agree to this use of cookies and data.
  • In Latvia
  • List of Countries
  • For 7 days
  • Water Temperature
  • Weather Map
  • Weather Widgets
  • user-avatar
    Login

    Hourly Weather La-Plata

    Today, 26 May, Tuesday

    Time Temperature Precipitation Wind Pressure Humidity
    00:00 +10°C° 0 mm 4 mps 761 mmHg 88%
    01:00 +8°C° 0 mm 4 mps 761 mmHg 90%
    02:00 +8°C° 0 mm 4 mps 761 mmHg 91%
    03:00 +8°C° 0 mm 4 mps 761 mmHg 91%
    04:00 +8°C° 0 mm 3 mps 761 mmHg 92%
    05:00 +8°C° 0 mm 3 mps 761 mmHg 92%
    06:00 +8°C° 0 mm 3 mps 761 mmHg 91%
    07:00 +9°C° 0 mm 3 mps 762 mmHg 89%
    08:00 +9°C° 0 mm 3 mps 762 mmHg 88%
    09:00 +11°C° 0 mm 3 mps 762 mmHg 80%
    10:00 +12°C° 0 mm 3 mps 762 mmHg 71%
    11:00 +14°C° 0 mm 3 mps 762 mmHg 63%
    12:00 +16°C° 0 mm 2 mps 761 mmHg 59%
    13:00 +17°C° 0 mm 2 mps 761 mmHg 55%
    14:00 +18°C° 0 mm 2 mps 761 mmHg 51%
    15:00 +16°C° 0 mm 2 mps 760 mmHg 57%
    16:00 +15°C° 0 mm 1 mps 760 mmHg 62%
    17:00 +13°C° 0 mm 1 mps 760 mmHg 68%
    18:00 +13°C° 0 mm 1 mps 760 mmHg 70%
    19:00 +12°C° 0 mm 1 mps 761 mmHg 72%
    20:00 +12°C° 0 mm 1 mps 761 mmHg 74%
    21:00 +12°C° 0 mm 2 mps 761 mmHg 75%
    22:00 +12°C° 0 mm 2 mps 761 mmHg 75%
    23:00 +12°C° 0 mm 2 mps 761 mmHg 76%

    Tomorrow, 27 May, Wednesday

    Time Temperature Precipitation Wind Pressure Humidity
    00:00 +12°C° 0 mm 2 mps 761 mmHg 79%
    01:00 +11°C° 0 mm 3 mps 761 mmHg 81%
    02:00 +11°C° 0 mm 3 mps 761 mmHg 84%
    03:00 +10°C° 0 mm 3 mps 760 mmHg 83%
    04:00 +10°C° 0 mm 3 mps 760 mmHg 82%
    05:00 +10°C° 0 mm 3 mps 760 mmHg 82%
    06:00 +11°C° 0 mm 3 mps 761 mmHg 82%
    07:00 +11°C° 0 mm 3 mps 761 mmHg 81%
    08:00 +12°C° 0 mm 3 mps 761 mmHg 81%
    09:00 +13°C° 0 mm 3 mps 761 mmHg 75%
    10:00 +15°C° 0 mm 4 mps 761 mmHg 68%
    11:00 +17°C° 0 mm 4 mps 761 mmHg 61%
    12:00 +18°C° 0 mm 4 mps 760 mmHg 59%
    13:00 +18°C° 0 mm 4 mps 760 mmHg 57%
    14:00 +19°C° 0 mm 4 mps 760 mmHg 55%
    15:00 +18°C° 0 mm 4 mps 760 mmHg 60%
    16:00 +15°C° 0 mm 4 mps 760 mmHg 65%
    17:00 +14°C° 0 mm 4 mps 760 mmHg 70%
    18:00 +14°C° 0 mm 4 mps 760 mmHg 72%
    19:00 +14°C° 0 mm 4 mps 759 mmHg 74%
    20:00 +14°C° 0 mm 4 mps 759 mmHg 77%
    21:00 +13°C° 0 mm 4 mps 760 mmHg 80%
    22:00 +13°C° 0 mm 4 mps 760 mmHg 83%
    23:00 +13°C° 0 mm 3 mps 760 mmHg 86%

    Day after tomorrow, 28 May, Thursday

    Time Temperature Precipitation Wind Pressure Humidity
    00:00 +12°C° 0 mm 3 mps 760 mmHg 86%
    01:00 +12°C° 0 mm 3 mps 760 mmHg 87%
    02:00 +13°C° 0 mm 2 mps 760 mmHg 88%
    03:00 +13°C° 0 mm 2 mps 760 mmHg 88%
    04:00 +12°C° 0 mm 2 mps 759 mmHg 89%
    05:00 +12°C° 0 mm 2 mps 759 mmHg 89%
    06:00 +13°C° 0 mm 2 mps 759 mmHg 89%
    07:00 +13°C° 0 mm 2 mps 759 mmHg 89%
    08:00 +13°C° 0 mm 3 mps 759 mmHg 89%
    09:00 +14°C° 0 mm 3 mps 759 mmHg 82%
    10:00 +17°C° 0 mm 3 mps 759 mmHg 75%
    11:00 +18°C° 0 mm 3 mps 759 mmHg 68%
    12:00 +19°C° 0 mm 2 mps 758 mmHg 66%
    13:00 +19°C° 0 mm 2 mps 758 mmHg 64%
    14:00 +19°C° 0 mm 2 mps 757 mmHg 62%
    15:00 +18°C° 0 mm 2 mps 757 mmHg 67%
    16:00 +17°C° 0 mm 2 mps 757 mmHg 72%
    17:00 +15°C° 0 mm 2 mps 757 mmHg 77%
    18:00 +15°C° 0 mm 2 mps 757 mmHg 79%
    19:00 +14°C° 0 mm 3 mps 757 mmHg 82%
    20:00 +14°C° 0 mm 3 mps 757 mmHg 85%
    21:00 +14°C° 0 mm 3 mps 757 mmHg 85%
    22:00 +14°C° 0 mm 3 mps 757 mmHg 86%
    23:00 +14°C° 0 mm 3 mps 757 mmHg 87%

    29 May, Friday

    Time Temperature Precipitation Wind Pressure Humidity
    00:00 +14°C° 0 mm 3 mps 757 mmHg 89%
    01:00 +14°C° 0 mm 3 mps 756 mmHg 90%
    02:00 +13°C° 0 mm 3 mps 756 mmHg 91%
    03:00 +13°C° 0 mm 3 mps 756 mmHg 92%
    04:00 +13°C° 0 mm 3 mps 756 mmHg 93%
    05:00 +14°C° 0 mm 2 mps 756 mmHg 93%
    06:00 +13°C° 0 mm 3 mps 756 mmHg 92%
    07:00 +13°C° 0 mm 3 mps 757 mmHg 92%
    08:00 +13°C° 0 mm 3 mps 757 mmHg 91%
    09:00 +16°C° 0 mm 3 mps 757 mmHg 84%
    10:00 +17°C° 0 mm 3 mps 757 mmHg 77%
    11:00 +19°C° 0 mm 3 mps 757 mmHg 70%
    12:00 +19°C° 0 mm 3 mps 757 mmHg 69%
    13:00 +19°C° 0 mm 4 mps 757 mmHg 68%
    14:00 +20°C° 0 mm 4 mps 757 mmHg 67%
    15:00 +17°C° 0 mm 5 mps 757 mmHg 68%
    16:00 +16°C° 0 mm 5 mps 758 mmHg 70%
    17:00 +15°C° 0 mm 6 mps 758 mmHg 72%
    18:00 +15°C° 0 mm 6 mps 759 mmHg 64%
    19:00 +14°C° 0 mm 7 mps 760 mmHg 57%
    20:00 +12°C° 0 mm 7 mps 761 mmHg 49%
    21:00 +11°C° 0 mm 7 mps 761 mmHg 51%
    22:00 +9°C° 0 mm 7 mps 762 mmHg 52%
    23:00 +8°C° 0 mm 6 mps 762 mmHg 54%

    30 May, Saturday

    Time Temperature Precipitation Wind Pressure Humidity
    00:00 +7°C° 0 mm 6 mps 763 mmHg 50%
    01:00 +7°C° 0 mm 6 mps 763 mmHg 46%
    02:00 +7°C° 0 mm 6 mps 764 mmHg 42%
    03:00 +5°C° 0 mm 6 mps 764 mmHg 48%
    04:00 +5°C° 0 mm 6 mps 764 mmHg 55%
    05:00 +4°C° 0 mm 6 mps 764 mmHg 61%
    06:00 +5°C° 0 mm 6 mps 765 mmHg 66%
    07:00 +5°C° 0 mm 6 mps 766 mmHg 71%
    08:00 +6°C° 0 mm 7 mps 767 mmHg 77%
    09:00 +8°C° 0 mm 7 mps 767 mmHg 69%
    10:00 +9°C° 0 mm 7 mps 768 mmHg 61%
    11:00 +11°C° 0 mm 6 mps 768 mmHg 53%
    12:00 +11°C° 0 mm 6 mps 768 mmHg 50%
    13:00 +11°C° 0 mm 6 mps 768 mmHg 48%
    14:00 +13°C° 0 mm 5 mps 768 mmHg 46%
    15:00 +12°C° 0 mm 5 mps 768 mmHg 50%
    16:00 +10°C° 0 mm 4 mps 768 mmHg 53%
    17:00 +9°C° 0 mm 3 mps 768 mmHg 57%
    18:00 +8°C° 0 mm 3 mps 768 mmHg 60%
    19:00 +8°C° 0 mm 3 mps 769 mmHg 63%
    20:00 +7°C° 0 mm 3 mps 769 mmHg 65%
    21:00 +7°C° 0 mm 3 mps 769 mmHg 68%
    22:00 +5°C° 0 mm 3 mps 769 mmHg 70%
    23:00 +5°C° 0 mm 3 mps 769 mmHg 72%

    31 May, Sunday

    Time Temperature Precipitation Wind Pressure Humidity
    00:00 +4°C° 0 mm 3 mps 769 mmHg 73%
    01:00 +4°C° 0 mm 3 mps 769 mmHg 74%
    02:00 +5°C° 0 mm 2 mps 769 mmHg 74%
    03:00 +5°C° 0 mm 2 mps 769 mmHg 75%
    04:00 +4°C° 0 mm 2 mps 769 mmHg 76%
    05:00 +5°C° 0 mm 1 mps 769 mmHg 76%
    06:00 +5°C° 0 mm 2 mps 769 mmHg 74%
    07:00 +5°C° 0 mm 2 mps 769 mmHg 72%
    08:00 +6°C° 0 mm 2 mps 770 mmHg 70%
    09:00 +7°C° 0 mm 2 mps 770 mmHg 65%
    10:00 +9°C° 0 mm 2 mps 770 mmHg 60%
    11:00 +12°C° 0 mm 2 mps 770 mmHg 55%
    12:00 +12°C° 0 mm 2 mps 770 mmHg 53%
    13:00 +13°C° 0 mm 2 mps 769 mmHg 52%
    14:00 +13°C° 0 mm 1 mps 769 mmHg 50%
    15:00 +12°C° 0 mm 1 mps 768 mmHg 55%
    16:00 +11°C° 0 mm 1 mps 768 mmHg 59%
    17:00 +10°C° 0 mm 1 mps 768 mmHg 63%
    18:00 +10°C° 0 mm 1 mps 768 mmHg 66%
    19:00 +9°C° 0 mm 1 mps 768 mmHg 68%
    20:00 +9°C° 0 mm 1 mps 768 mmHg 70%
    21:00 +9°C° 0 mm 1 mps 768 mmHg 72%
    22:00 +8°C° 0 mm 1 mps 768 mmHg 73%
    23:00 +7°C° 0 mm 0 mps 768 mmHg 75%
    Show more